Flag for Cuba Weather past 2 weeks in Santiago de Cuba, Cuba

Now
82 °F

Passing clouds.


Feels Like: 88 °F
Forecast: 74 / 89 °F
Wind: 6 mph from South

Location: Santiago De Cuba - Oriente

Current Time: Oct 22, 2014 at 8:11:56 PM

Latest Report: Oct 22, 2014 at 7:54 PM


Visibility: 6 mi

Pressure: 29.89 "Hg

Humidity: 74%

Dew point: 73 °F

Location of Santiago de CubaLocation

Historic Weather in Santiago de Cuba — Graph

°F

Santiago de Cuba temperature yesterday

Maximum temperature yesterday: 88 °F (at 12:50 PM)
Minimum temperature yesterday: 72 °F (at 5:51 AM)
Average temperature yesterday: 80 °F

Past Weeks' High & Low Weather Summary

 TemperatureHumidityPressure
High91 °F (Oct 8, 11:50 AM)89% (Oct 10, 3:51 AM)30.01 "Hg (Oct 10, 3:51 AM)
Low72 °F (Oct 21, 5:51 AM)46% (Oct 9, 12:50 PM)29.80 "Hg (Oct 10, 3:50 PM)
Average81 °F72%29.93 "Hg
* Reported Oct 7 6:50 PM — Oct 22 6:50 PM, Santiago de Cuba, Weather by CustomWeather, © 2014

Note: Actual official high and low records may vary slightly from our data, if they occured in-between our weather recording intervals... More about our weather records

Advertising

Santiago de Cuba weather history for previous 24 hours

 ConditionsComfort  
Time TempWeatherWind HumidityBarometerVisibility
6:50 PM
Oct 22
82 °FScattered clouds.6 mph74%29.89 "Hg6 mi
5:51 PM84 °FScattered clouds.6 mph66%29.86 "Hg6 mi
4:52 PM84 °FScattered clouds.8 mph74%29.86 "Hg6 mi
3:53 PM86 °FScattered clouds.9 mph66%29.89 "Hg6 mi
2:51 PM88 °FScattered clouds.12 mph62%29.89 "Hg6 mi
1:51 PM88 °FScattered clouds.13 mph59%29.92 "Hg6 mi
12:50 PM88 °FScattered clouds.13 mph59%29.92 "Hg6 mi
11:51 AM88 °FPassing clouds.13 mph59%29.95 "Hg6 mi
10:50 AM86 °FPassing clouds.8 mph59%29.98 "Hg6 mi
9:55 AM86 °FPassing clouds.8 mph59%29.98 "Hg6 mi
8:51 AM82 °FPassing clouds.2 mph70%29.95 "Hg6 mi
7:52 AM75 °FPassing clouds.3 mph83%29.95 "Hg6 mi
6:52 AM73 °FPassing clouds.5 mph83%29.92 "Hg6 mi
5:53 AM75 °FPassing clouds.3 mph83%29.92 "Hg6 mi
4:51 AM75 °FPassing clouds.5 mph89%29.89 "Hg6 mi
3:52 AM75 °FPassing clouds.6 mph89%29.89 "Hg6 mi
2:51 AM75 °FPassing clouds.5 mph83%29.89 "Hg6 mi
1:51 AM75 °FPassing clouds.5 mph83%29.92 "Hg6 mi
12:51 AM75 °FPassing clouds.6 mph83%29.95 "Hg6 mi
11:53 PM
Oct 21
75 °FPassing clouds.6 mph83%29.95 "Hg6 mi
10:52 PM77 °FPassing clouds.6 mph83%29.95 "Hg6 mi
9:51 PM79 °FPassing clouds.6 mph79%29.95 "Hg6 mi
8:51 PM81 °FPassing clouds.3 mph74%29.92 "Hg6 mi
Weather by CustomWeather, © 2014

See weather overviewHow to use our weather pages